CAPE
4 nan nan nan nan nan nan nan nan nan nan nan nan nan nan nan nan nan 2 2 2 nan nan nan nan nan 0 29 41 41 47 52 55 55 56 57 58 58 63 63 63 61 67 74 74 73 73 60 60 50 40 38 38 38 35 39 39 49 59 52 52 38 23 11 11 7 8 8 5 5 5 90 280 280 377 445 452 452 433 385 385 254 132 40 40 0
nan nan nan nan nan nan nan nan nan nan nan nan nan nan nan nan nan nan nan 0 0 nan nan nan nan nan nan 12 41 41 40 44 47 47 53 58 60 60 60 62 62 61 56 51 51 51 47 38 38 35 31 33 35 35 34 38 38 45 51 43 43 34 19 9 9 6 4 5 8 8 3 32 251 251 364 388 428 428 382 335 335 213 112 24 24 nan
nan nan nan nan nan nan nan nan nan nan nan nan nan nan nan nan nan nan 0 1 1 nan nan nan nan nan nan 1 37 37 33 35 40 40 50 57 63 63 64 65 65 60 55 45 45 36 31 25 25 22 28 31 31 31 34 38 38 40 41 37 37 25 16 7 7 3 2 2 5 5 2 3 184 184 334 336 301 301 269 193 193 109 42 7 7 nan
nan nan nan nan nan nan nan nan nan nan nan nan nan nan nan nan 1 1 3 nan nan nan nan nan nan nan nan nan 19 19 29 33 39 39 47 55 60 60 62 60 60 57 49 40 40 32 25 18 18 17 23 28 33 33 37 41 41 37 32 30 30 19 10 3 3 1 0 0 1 1 4 3 29 29 183 176 120 120 57 34 34 24 18 6 6 nan
nan nan nan nan nan nan nan nan nan nan nan nan nan nan nan 2 3 3 2 0 0 nan nan nan nan nan nan nan 6 6 27 33 40 40 44 47 51 51 51 53 53 51 45 36 36 29 24 20 20 18 25 32 37 37 43 39 39 30 27 24 24 14 7 1 1 0 nan nan nan nan 4 3 nan nan 9 18 7 7 2 7 7 20 24 11 11 2
nan nan nan nan nan nan nan nan nan nan nan nan nan nan nan 3 3 3 3 1 1 1 nan nan nan nan nan nan 8 8 26 32 35 35 37 36 37 37 42 44 44 49 48 42 42 37 34 27 27 21 30 37 43 43 47 38 38 26 24 22 22 12 4 1 1 nan nan nan nan nan 1 3 nan nan nan nan nan nan nan 0 0 26 31 19 19 9
nan nan nan nan nan nan nan nan nan nan nan nan nan nan nan 1 3 3 8 12 12 3 nan nan nan nan nan nan 10 10 23 25 26 26 24 24 29 29 34 43 43 52 59 56 56 48 37 32 32 26 31 37 45 45 49 37 37 25 22 19 19 10 4 1 1 nan nan nan nan nan 0 2 nan nan nan nan nan nan nan nan nan 11 20 27 27 20
nan nan nan nan nan nan nan nan nan nan nan 0 nan nan nan 0 8 8 8 nan nan nan nan nan nan nan nan nan nan nan nan nan nan nan 1 3 21 21 36 46 46 51 45 39 39 33 27 23 23 23 28 34 37 37 37 32 32 26 23 16 16 7 1 nan nan nan nan nan nan nan nan 0 0 0 nan nan nan nan nan nan nan nan 0 16 16 38
nan nan nan nan nan nan nan nan nan nan 0 1 0 0 1 3 10 10 4 nan nan nan nan nan nan nan nan nan nan nan nan 1 nan nan 0 1 8 8 36 42 42 43 32 25 25 23 21 18 18 24 35 39 38 38 32 29 29 24 22 14 14 3 nan nan nan nan nan nan nan nan nan nan 0 0 nan nan nan nan nan nan nan nan nan nan nan 12
nan nan nan nan nan nan nan nan nan nan nan 0 1 1 4 8 9 9 3 0 0 nan 0 0 0 nan nan nan nan nan nan 1 20 20 39 34 50 50 35 16 16 10 16 16 16 17 16 14 14 19 31 42 44 44 31 25 25 20 18 12 12 1 nan nan nan nan nan nan nan nan nan nan 1 1 nan nan nan nan nan nan nan nan nan nan nan nan
nan nan nan nan nan nan nan nan 0 0 nan nan 1 1 0 4 8 8 5 1 1 0 0 0 0 nan nan nan nan nan nan nan 3 3 35 36 28 28 15 6 6 6 9 11 11 11 9 6 6 8 19 37 46 46 36 22 22 17 13 8 8 2 nan nan nan nan nan nan nan nan nan nan 0 0 nan nan nan nan nan nan nan nan nan nan nan nan
nan nan nan nan nan nan nan 0 0 0 2 1 0 0 1 1 7 7 7 5 5 3 nan nan nan nan 0 nan nan nan nan 1 26 26 22 2 nan nan 0 0 0 3 6 7 7 7 4 2 2 2 6 17 35 35 35 19 19 12 6 3 3 1 nan nan nan nan nan nan nan nan nan nan nan nan 0 nan nan nan nan nan nan nan nan nan nan nan
nan nan nan nan nan nan nan 0 1 1 2 1 1 1 2 1 5 5 10 7 7 5 1 nan nan nan nan nan nan nan 0 19 31 31 0 nan nan nan nan nan nan nan 0 1 1 nan 2 2 2 2 3 9 19 19 29 15 15 6 1 1 1 1 nan nan nan nan nan nan nan nan nan nan nan nan 0 nan nan nan nan nan nan nan nan nan nan nan
nan nan nan nan nan nan nan 1 3 3 3 1 0 0 0 1 3 3 8 7 7 4 3 2 2 1 nan nan nan nan 11 26 0 0 nan nan nan nan nan nan nan nan nan 0 0 nan 0 0 0 0 3 6 11 11 11 8 8 3 0 0 0 0 nan nan nan nan nan nan nan nan nan nan nan nan nan nan nan nan nan nan nan nan nan nan nan nan
nan nan 0 0 0 nan nan 2 4 4 3 0 nan nan nan 1 3 3 6 6 6 3 2 2 2 1 nan nan nan nan 16 3 nan nan nan nan nan nan nan nan nan nan nan 0 0 nan 0 0 0 1 2 5 7 7 6 4 4 3 0 nan nan 0 nan nan nan nan nan nan nan nan nan nan nan nan nan nan nan nan nan nan nan nan nan nan nan nan
0 1 1 1 1 1 1 3 4 4 0 nan nan nan nan 1 3 3 7 5 5 3 3 2 2 1 nan nan nan nan 2 nan nan nan nan nan nan nan nan nan nan nan nan 0 0 nan nan nan nan 1 3 9 12 12 10 8 8 3 0 nan nan nan nan nan nan nan nan nan nan nan nan nan nan nan nan nan nan nan nan nan nan nan nan nan nan nan
3 4 4 2 2 2 4 7 2 2 nan nan nan nan 0 2 4 4 6 4 4 3 2 4 4 2 nan nan nan nan nan nan nan nan nan nan nan nan nan 0 0 0 0 0 0 0 0 0 0 1 4 8 12 12 12 12 12 4 2 0 0 nan nan nan nan nan nan nan nan nan nan nan nan nan nan nan nan nan nan nan nan nan nan nan nan nan
7 7 6 7 7 8 7 2 nan nan nan nan nan nan nan 2 6 6 6 3 3 2 3 4 4 3 0 nan nan nan nan nan 0 0 0 nan nan nan nan 1 1 1 1 1 1 1 1 2 2 3 6 13 12 12 13 15 15 11 7 2 2 0 nan nan nan nan nan nan nan nan nan nan nan nan nan nan nan nan nan nan nan nan nan nan nan nan
8 7 8 12 12 12 4 0 nan nan nan nan nan nan 1 2 3 3 2 1 1 2 3 3 3 3 1 nan nan nan nan nan 1 1 1 nan nan nan nan 0 0 3 2 3 3 2 3 5 5 8 11 13 13 13 12 13 13 12 10 5 5 1 nan nan nan nan nan 0 nan nan nan nan nan nan nan nan nan nan nan nan nan nan nan nan nan nan
5 6 6 1 1 nan nan nan nan nan nan nan 0 0 nan 0 0 0 0 nan nan nan 2 2 2 3 1 nan nan nan nan 0 2 2 3 nan nan nan nan nan nan 3 3 3 3 2 5 7 7 13 17 13 12 12 10 10 10 11 11 8 8 2 nan nan nan nan nan 0 nan nan nan nan nan nan nan nan nan nan nan nan nan nan nan nan nan nan
0 nan nan nan nan nan nan nan nan nan 2 1 nan nan nan 0 nan nan nan nan nan nan 2 2 2 4 2 0 nan nan nan 1 3 3 3 0 nan nan nan 0 0 5 8 3 3 1 3 3 3 6 13 15 11 11 9 8 8 12 13 10 10 4 nan nan nan nan nan 1 nan nan nan nan nan nan nan nan nan nan nan nan nan nan nan nan nan nan
nan nan nan nan nan nan 1 nan nan nan 1 nan nan nan nan nan nan nan nan nan nan nan 1 4 4 5 4 nan nan nan nan 2 5 5 3 0 nan nan 0 8 8 17 8 1 1 nan nan 1 1 5 9 12 8 8 6 7 7 13 19 13 13 7 0 nan nan nan nan 0 nan nan nan nan nan nan nan nan nan nan nan nan nan nan nan nan nan nan
nan nan nan nan nan nan nan nan nan nan nan nan nan nan nan nan nan nan nan nan nan nan 1 7 7 3 nan nan nan nan 0 5 11 11 6 1 nan nan 2 8 8 7 2 nan nan nan nan 2 2 4 8 11 5 5 3 5 5 12 15 14 14 7 2 0 0 nan nan nan nan nan nan nan nan nan nan nan nan nan nan nan nan nan nan nan nan nan
nan nan nan nan nan nan nan nan nan nan nan nan nan nan nan nan nan nan nan nan nan nan 3 1 1 nan nan 0 0 0 2 8 11 11 9 4 3 3 1 nan nan 1 1 nan nan 0 2 2 2 2 3 7 2 2 2 4 4 13 12 13 13 7 2 0 0 nan nan nan nan nan nan nan nan nan nan nan nan nan nan nan nan nan nan nan nan nan
nan nan nan nan nan nan 0 nan nan nan nan nan nan nan nan 0 3 3 2 4 4 4 2 0 0 1 1 5 1 1 0 3 7 7 8 3 nan nan nan 2 2 6 2 nan nan 0 1 0 0 nan 0 2 1 1 1 3 3 9 11 8 8 4 0 nan nan nan nan nan nan nan nan nan nan nan nan nan nan nan nan nan nan nan nan nan nan nan
6 12 25 51 51 114 129 137 131 131 90 24 16 16 18 24 28 28 18 12 12 9 8 4 4 3 1 0 nan nan nan 5 12 12 7 2 1 1 1 5 5 6 3 nan nan nan nan nan nan nan nan 1 3 3 2 3 3 6 5 3 3 0 nan nan nan nan nan nan nan nan nan nan nan nan nan nan nan nan nan nan nan nan nan nan nan nan
80 93 112 122 122 121 112 103 108 108 121 100 47 47 30 26 19 19 11 9 9 12 8 3 3 1 0 nan nan nan nan 3 4 4 2 2 1 1 1 2 2 4 5 0 0 nan 0 nan nan nan nan nan 0 0 4 3 3 2 1 2 2 nan nan nan nan nan nan nan nan nan nan nan nan nan nan nan nan nan nan nan nan nan nan nan nan nan
77 75 72 71 71 74 83 92 102 102 107 108 104 104 54 18 10 10 8 8 8 8 4 1 1 0 nan nan nan nan nan 1 nan nan nan 3 4 4 1 nan nan 0 3 0 0 0 1 nan nan nan nan nan 1 1 6 1 1 nan nan 1 1 nan nan nan nan nan nan nan nan nan nan nan nan nan nan nan nan nan nan nan nan nan nan nan nan nan
61 58 58 62 62 67 74 77 77 77 78 75 80 80 49 13 6 6 6 3 3 1 1 1 1 1 0 nan nan nan nan 0 nan nan 0 5 0 0 nan nan nan 0 2 0 0 nan nan nan nan nan nan 1 8 8 7 nan nan nan nan nan nan nan nan nan nan nan nan nan nan nan nan nan nan nan nan nan nan nan nan nan nan nan nan nan nan nan
15 35 41 49 49 53 51 25 41 41 56 59 65 65 52 8 0 0 nan nan nan nan 1 4 4 2 0 0 nan nan nan nan 2 2 7 1 nan nan nan nan nan 1 3 nan nan nan nan nan nan nan 1 3 17 17 18 nan nan nan 1 nan nan nan nan nan nan nan nan nan nan nan nan nan nan nan nan nan nan nan nan nan nan nan nan nan nan nan
nan nan nan nan nan 0 nan nan 8 8 45 57 54 54 31 nan nan nan nan 0 0 1 2 2 2 2 1 0 nan nan nan nan 14 14 nan 0 nan nan nan 0 0 1 5 0 0 nan nan nan nan 0 11 18 40 40 12 0 0 2 6 0 0 nan nan nan nan nan nan nan nan nan nan nan nan nan nan nan nan nan nan nan nan nan nan nan nan nan
nan nan nan nan nan nan nan nan nan nan nan nan nan nan 2 2 1 1 nan 0 0 2 1 1 1 1 1 1 nan nan nan nan nan nan 2 0 nan nan 0 0 0 1 2 6 6 4 0 0 0 nan 1 64 36 36 0 nan nan 1 2 2 2 0 nan nan nan nan nan nan nan nan nan nan nan nan nan nan nan nan nan nan nan nan nan nan nan nan
1 nan nan nan nan nan nan nan nan nan nan nan nan nan nan nan 5 5 3 1 1 2 1 1 1 1 0 1 nan nan nan nan 1 1 7 2 nan nan 0 0 0 0 1 3 3 5 4 1 1 nan nan 31 55 55 3 nan nan nan 0 0 0 nan nan nan nan nan nan nan nan nan nan nan nan nan nan nan nan nan nan nan nan nan nan nan nan nan
nan nan nan nan nan nan nan nan nan nan nan nan nan nan nan nan nan nan 2 nan nan nan nan nan nan nan nan nan nan nan nan nan 2 2 8 3 0 0 0 0 0 0 0 1 1 3 3 3 3 0 0 18 69 69 6 1 1 nan nan nan nan nan nan nan nan nan nan nan nan nan nan nan nan nan nan nan nan nan nan nan nan nan nan nan nan nan
nan nan nan nan nan nan nan nan nan nan nan nan nan nan nan nan nan nan nan nan nan nan nan nan nan nan nan nan nan nan nan nan 0 0 9 3 0 0 nan nan nan nan 0 0 0 0 1 4 4 3 nan 8 57 57 2 0 0 nan nan nan nan nan nan nan nan nan nan 0 nan nan nan nan nan nan nan nan nan nan nan nan nan nan nan nan nan nan
nan nan nan nan nan nan nan nan nan nan nan nan nan nan nan nan nan nan nan nan nan 0 1 nan nan nan nan nan nan nan nan nan nan nan 6 1 nan nan nan nan nan nan 0 nan nan 0 0 2 2 3 0 6 35 35 1 nan nan nan nan nan nan nan nan nan nan nan 0 1 nan nan nan nan nan nan nan nan nan nan nan nan nan nan nan nan nan nan
nan nan nan nan nan nan nan nan nan nan nan nan nan nan nan nan nan nan nan nan nan nan nan 3 3 1 4 nan nan nan nan nan nan nan 2 0 nan nan nan nan nan 1 nan nan nan 0 1 1 1 0 0 11 47 47 nan nan nan nan nan nan nan nan nan nan nan nan 2 0 nan nan nan nan nan nan nan nan nan nan nan nan nan nan nan nan nan nan
nan nan nan nan nan nan nan nan nan nan nan nan nan nan nan nan nan nan nan nan nan nan nan nan nan nan 4 9 0 0 nan nan nan nan nan nan nan nan nan nan nan 0 0 nan nan 0 1 1 1 nan 1 25 45 45 nan nan nan nan nan nan nan nan nan nan nan nan 1 2 nan nan nan nan nan nan nan nan nan nan nan nan nan nan nan nan nan nan
nan nan nan nan nan nan nan nan nan nan nan nan nan nan nan nan nan nan nan nan nan nan nan nan nan nan nan nan 3 3 4 0 nan nan nan nan nan nan nan nan nan nan nan nan nan 0 1 1 1 nan nan 19 26 26 nan nan nan nan nan nan nan nan nan nan nan nan 2 2 nan nan nan nan nan nan nan nan nan nan nan nan nan nan nan nan nan nan
nan nan nan nan nan nan nan nan nan nan nan nan nan nan nan nan nan nan nan nan nan nan nan nan nan nan nan 1 2 2 3 1 1 1 nan nan nan nan nan nan nan nan nan nan nan 0 0 1 1 1 nan 1 18 18 13 nan nan nan nan nan nan nan nan nan nan nan 5 3 nan nan nan nan nan nan nan nan nan nan nan nan nan nan nan nan nan nan
nan nan nan nan nan nan nan nan nan nan nan nan nan nan nan nan nan nan nan nan nan nan nan nan nan nan nan nan nan nan nan nan 0 0 nan nan nan nan nan nan nan nan nan nan nan 0 2 1 1 2 0 nan 7 7 24 nan nan nan nan nan nan nan nan nan nan nan 2 2 nan nan nan nan nan nan nan nan nan nan nan nan nan nan nan nan nan nan
4 nan nan nan nan nan nan nan nan nan nan nan nan nan nan nan nan nan nan nan nan nan nan nan nan nan nan nan nan nan nan nan nan nan nan nan nan nan nan nan nan nan 0 0 0 2 3 2 2 2 0 nan 9 9 19 nan nan nan nan nan nan nan nan nan nan nan 0 0 nan nan nan nan nan nan nan nan nan nan nan nan nan nan nan nan nan nan
nan nan nan nan nan nan nan nan nan nan nan nan nan nan nan nan nan nan nan nan nan nan nan nan nan nan nan nan nan nan nan nan nan nan nan nan nan nan nan nan nan 0 0 1 1 1 2 3 3 1 1 nan 6 6 31 nan nan nan nan nan nan nan nan nan nan nan nan nan nan nan nan nan nan nan nan nan nan nan nan nan nan nan nan nan nan nan
nan nan nan nan nan nan nan nan nan nan nan nan nan nan nan nan nan nan nan nan nan nan nan nan nan nan nan nan nan nan nan nan nan nan nan nan nan nan nan nan nan nan 0 1 1 1 2 3 3 1 2 nan 15 15 9 nan nan nan nan nan nan nan nan nan nan nan nan nan nan nan nan nan nan nan nan nan nan nan nan nan nan nan nan nan nan nan
nan nan nan nan nan nan nan nan nan nan nan nan nan nan nan nan 0 0 nan nan nan nan nan nan nan nan nan nan nan nan nan nan nan nan nan nan 7 7 nan nan nan nan 0 1 1 2 3 1 1 0 1 7 17 17 nan nan nan nan nan nan nan nan nan nan nan nan nan nan nan nan nan nan nan nan nan nan nan nan nan nan nan nan nan nan nan nan
nan nan nan nan nan nan nan nan nan nan nan nan nan nan nan nan nan nan nan nan nan nan nan nan nan nan nan nan nan nan nan nan nan nan nan nan nan nan nan nan nan nan 0 1 1 3 3 nan nan nan 7 10 2 2 nan nan nan nan nan nan nan nan nan nan nan nan nan nan nan nan nan nan nan nan nan nan nan nan nan nan nan nan nan nan nan nan
nan nan nan nan nan nan nan nan nan nan nan nan nan nan nan nan nan nan nan nan nan nan nan nan nan nan nan nan nan nan nan nan nan nan nan nan nan nan nan nan nan 0 0 1 1 2 2 nan nan 0 17 nan nan nan nan nan nan nan nan nan nan nan nan nan nan nan nan nan nan nan nan nan nan nan nan nan nan nan nan nan nan nan nan nan nan nan
nan nan nan nan nan nan nan nan nan nan nan nan nan nan nan nan nan nan nan nan nan nan nan nan nan nan nan nan nan nan nan nan nan nan nan nan nan nan nan nan nan nan 0 1 1 2 nan nan nan nan nan nan nan nan nan nan nan nan nan nan nan nan nan nan nan nan nan nan nan nan nan nan nan nan nan nan nan nan nan nan nan nan nan nan nan nan
nan nan nan nan nan nan nan nan nan nan nan nan nan nan nan nan 8 8 nan nan nan nan nan nan nan nan nan nan nan nan 0 nan nan nan nan nan nan nan nan nan nan nan nan 0 0 0 nan nan nan nan nan nan nan nan nan nan nan nan nan nan nan nan nan nan nan nan nan nan nan nan nan nan nan nan nan nan nan nan nan nan nan nan nan nan nan nan
nan nan nan nan nan nan nan nan nan nan nan nan nan nan nan nan nan nan nan nan nan nan nan nan nan nan nan nan nan nan nan nan nan nan nan nan nan nan nan nan nan nan nan nan nan nan nan nan nan nan 0 nan nan nan nan nan nan nan nan nan nan nan nan nan nan nan nan nan nan nan nan nan nan nan nan nan nan nan nan nan nan nan nan nan nan nan
nan nan nan nan nan nan nan nan nan nan nan nan nan nan nan nan nan nan nan nan nan nan nan nan nan nan nan nan nan nan nan nan nan nan nan nan nan nan nan nan nan nan nan 1 1 0 nan nan nan nan nan 1 nan nan nan nan nan nan nan nan nan nan nan nan nan nan nan nan nan nan nan nan nan nan nan nan nan nan nan nan nan nan nan nan nan nan
CIN
-3 nan nan nan nan nan nan nan nan nan nan nan nan nan nan nan nan nan -17 -20 -20 nan nan nan nan nan -12 -0 -0 -0 -0 -0 -0 -0 -0 -0 -0 -0 -0 -0 -0 -0 -0 -0 -0 -0 -0 -0 -0 -0 -0 -0 -0 -0 -0 -0 -0 -0 -0 -0 -0 -0 -0 -0 -0 -0 -0 -0 -0 -0 -0 -0 -0 -0 -0 -0 -1 -1 -1 -2 -2 -12 -44 -90 -90 -141
nan nan nan nan nan nan nan nan nan nan nan nan nan nan nan nan nan nan nan -33 -33 nan nan nan nan nan nan -0 -0 -0 -0 -0 -0 -0 -0 -0 -0 -0 -0 -0 -0 -0 -0 -0 -0 -0 -0 -0 -0 -0 -0 -0 -0 -0 -0 -0 -0 -0 -0 -0 -0 -0 -0 -0 -0 -0 -0 -0 -0 -0 -0 -0 -0 -0 -0 -0 -0 -0 -3 -6 -6 -20 -48 -96 -96 nan
nan nan nan nan nan nan nan nan nan nan nan nan nan nan nan nan nan nan -27 -24 -24 nan nan nan nan nan nan -14 -0 -0 -0 -0 -0 -0 -0 -0 -0 -0 -0 -0 -0 -0 -0 -0 -0 -0 -0 -0 -0 -0 -0 -0 -0 -0 -0 -0 -0 -0 -0 -0 -0 -0 -0 -0 -0 -0 -0 -0 -0 -0 -0 -0 -0 -0 -0 -0 -2 -2 -6 -26 -26 -45 -79 -105 -105 nan
nan nan nan nan nan nan nan nan nan nan nan nan nan nan nan nan -22 -22 -24 nan nan nan nan nan nan nan nan nan -0 -0 -0 -0 -0 -0 -0 -0 -0 -0 -0 -0 -0 -0 -0 -0 -0 -0 -0 -0 -0 -0 -0 -0 -0 -0 -0 -0 -0 -0 -0 -0 -0 -0 -0 -0 -0 -0 -2 -1 -0 -0 -0 -0 -0 -0 -1 -4 -21 -21 -48 -73 -73 -84 -89 -100 -100 nan
nan nan nan nan nan nan nan nan nan nan nan nan nan nan nan -18 -17 -17 -26 -43 -43 nan nan nan nan nan nan nan -0 -0 -0 -0 -0 -0 -0 -0 -0 -0 -0 -0 -0 -0 -0 -0 -0 -0 -0 -0 -0 -0 -0 -0 -0 -0 -0 -0 -0 -0 -0 -0 -0 -0 -0 -0 -0 -2 nan nan nan nan -0 -0 nan nan -42 -40 -61 -61 -108 -89 -89 -82 -79 -90 -90 -101
nan nan nan nan nan nan nan nan nan nan nan nan nan nan nan -18 -15 -15 -20 -28 -28 -30 nan nan nan nan nan nan -0 -0 -0 -0 -0 -0 -0 -0 -0 -0 -0 -0 -0 -0 -0 -0 -0 -0 -0 -0 -0 -0 -0 -0 -0 -0 -0 -0 -0 -0 -0 -0 -0 -0 -0 -0 -0 nan nan nan nan nan -0 -0 nan nan nan nan nan nan nan -119 -119 -69 -73 -83 -83 -93
nan nan nan nan nan nan nan nan nan nan nan nan nan nan nan -20 -20 -20 -12 -7 -7 -14 nan nan nan nan nan nan -0 -0 -0 -0 -0 -0 -0 -0 -0 -0 -0 -0 -0 -0 -0 -0 -0 -0 -0 -0 -0 -0 -0 -0 -0 -0 -0 -0 -0 -0 -0 -0 -0 -1 -0 -0 -0 nan nan nan nan nan -0 -0 nan nan nan nan nan nan nan nan nan -86 -79 -77 -77 -89
nan nan nan nan nan nan nan nan nan nan nan -23 nan nan nan -10 -7 -7 -23 nan nan nan nan nan nan nan nan nan nan nan nan nan nan nan -0 -0 -0 -0 -0 -0 -0 -0 -0 -0 -0 -0 -0 -0 -0 -0 -0 -0 -0 -0 -0 -0 -0 -0 -0 -0 -0 -1 -1 nan nan nan nan nan nan nan nan -0 -0 -0 nan nan nan nan nan nan nan nan -100 -86 -86 -82
nan nan nan nan nan nan nan nan nan nan -34 -28 -26 -26 -7 -4 -4 -4 -14 nan nan nan nan nan nan nan nan nan nan nan nan -0 nan nan -0 -2 -5 -5 -0 -0 -0 -0 -0 -0 -0 -0 -0 -0 -0 -0 -0 -0 -0 -0 -0 -0 -0 -0 -0 -0 -0 -2 nan nan nan nan nan nan nan nan nan nan -0 -0 nan nan nan nan nan nan nan nan nan nan nan -114
nan nan nan nan nan nan nan nan nan nan nan -36 -28 -28 -19 -0 -0 -0 -4 -10 -10 nan -10 -6 -6 nan nan nan nan nan nan -0 -0 -0 -0 -0 -0 -0 -0 -0 -0 -0 -0 -0 -0 -0 -0 -0 -0 -0 -0 -0 -0 -0 -0 -0 -0 -0 -0 -0 -0 -2 nan nan nan nan nan nan nan nan nan nan -0 -0 nan nan nan nan nan nan nan nan nan nan nan nan
nan nan nan nan nan nan nan nan -31 -31 nan nan -11 -11 -2 -4 -4 -4 -0 -1 -1 -3 -9 -8 -8 nan nan nan nan nan nan nan -6 -6 -0 -0 -0 -0 -0 -0 -0 -0 -0 -0 -0 -0 -0 -0 -0 -0 -0 -0 -0 -0 -0 -0 -0 -0 -0 -0 -0 -1 nan nan nan nan nan nan nan nan nan nan -0 -0 nan nan nan nan nan nan nan nan nan nan nan nan
nan nan nan nan nan nan nan -19 -21 -21 -18 -7 -1 -1 -0 -12 -13 -13 -0 -0 -0 -1 nan nan nan nan -13 nan nan nan nan -12 -1 -1 -3 -8 nan nan -0 -0 -0 -0 -0 -0 -0 -0 -0 -0 -0 -0 -0 -0 -0 -0 -0 -0 -0 -1 -1 -0 -0 -1 nan nan nan nan nan nan nan nan nan nan nan nan -0 nan nan nan nan nan nan nan nan nan nan nan
nan nan nan nan nan nan nan -9 -8 -8 -8 -7 -1 -1 -0 -0 -7 -7 -6 -0 -0 -0 -3 nan nan nan nan nan nan nan -17 -3 -1 -1 -7 nan nan nan nan nan nan nan -2 -0 -0 nan -0 -0 -0 -0 -0 -0 -0 -0 -0 -0 -0 -1 -2 -1 -1 -1 nan nan nan nan nan nan nan nan nan nan nan nan -0 nan nan nan nan nan nan nan nan nan nan nan
nan nan nan nan nan nan nan -7 -4 -4 -5 -9 -5 -5 -3 -1 -0 -0 -0 -0 -0 -2 -2 -0 -0 -1 nan nan nan nan -9 -2 -9 -9 nan nan nan nan nan nan nan nan nan -3 -3 nan -0 -0 -0 -0 -0 -0 -0 -0 -0 -0 -0 -0 -2 -1 -1 -1 nan nan nan nan nan nan nan nan nan nan nan nan nan nan nan nan nan nan nan nan nan nan nan nan
nan nan -7 -6 -6 nan nan -8 -7 -7 -9 -14 nan nan nan -0 -0 -0 -0 -0 -0 -1 -0 -0 -0 -1 nan nan nan nan -10 -11 nan nan nan nan nan nan nan nan nan nan nan -1 -1 nan -1 -1 -1 -1 -1 -0 -0 -0 -0 -1 -1 -0 -1 nan nan -1 nan nan nan nan nan nan nan nan nan nan nan nan nan nan nan nan nan nan nan nan nan nan nan nan
-10 -8 -5 -5 -5 -5 -7 -8 -8 -8 -13 nan nan nan nan -0 -0 -0 -0 -0 -0 -0 -0 -0 -0 -0 nan nan nan nan -23 nan nan nan nan nan nan nan nan nan nan nan nan -1 -1 nan nan nan nan -1 -0 -0 -0 -0 -0 -1 -1 -0 -1 nan nan nan nan nan nan nan nan nan nan nan nan nan nan nan nan nan nan nan nan nan nan nan nan nan nan nan
-7 -5 -5 -4 -4 -4 -6 -8 -14 -14 nan nan nan nan -5 -3 -0 -0 -0 -0 -0 -0 -0 -0 -0 -0 nan nan nan nan nan nan nan nan nan nan nan nan nan -4 -4 -1 -1 -1 -1 -2 -3 -2 -2 -1 -0 -0 -0 -0 -0 -0 -0 -0 -1 -12 -12 nan nan nan nan nan nan nan nan nan nan nan nan nan nan nan nan nan nan nan nan nan nan nan nan nan
-6 -4 -4 -3 -3 -4 -7 -11 nan nan nan nan nan nan nan -6 -2 -2 -0 -0 -0 -0 -0 -0 -0 -0 -0 nan nan nan nan nan -2 -2 -0 nan nan nan nan -4 -4 -0 -0 -2 -2 -1 -1 -1 -1 -1 -0 -0 -0 -0 -0 -0 -0 -0 -1 -11 -11 -18 nan nan nan nan nan nan nan nan nan nan nan nan nan nan nan nan nan nan nan nan nan nan nan nan
-3 -4 -3 -1 -1 -4 -9 -13 nan nan nan nan nan nan -4 -1 -0 -0 -0 -0 -0 -0 -0 -0 -0 -0 -0 nan nan nan nan nan -0 -0 -0 nan nan nan nan -4 -4 -0 -0 -1 -1 -2 -2 -2 -2 -0 -0 -0 -0 -0 -0 -0 -0 -0 -1 -4 -4 -17 nan nan nan nan nan -3 nan nan nan nan nan nan nan nan nan nan nan nan nan nan nan nan nan nan
-5 -4 -3 -9 -9 nan nan nan nan nan nan nan -7 -7 nan -1 -0 -0 -0 nan nan nan -0 -0 -0 -0 -1 nan nan nan nan -9 -0 -0 -0 nan nan nan nan nan nan -0 -0 -1 -1 -3 -2 -3 -3 -0 -0 -0 -0 -0 -0 -0 -0 -0 -0 -3 -3 -16 nan nan nan nan nan -3 nan nan nan nan nan nan nan nan nan nan nan nan nan nan nan nan nan nan
-7 nan nan nan nan nan nan nan nan nan -5 -10 nan nan nan -1 nan nan nan nan nan nan -1 -1 -1 -0 -3 -8 nan nan nan -6 -0 -0 -0 -1 nan nan nan -5 -5 -0 -0 -3 -3 -6 -5 -5 -5 -3 -0 -0 -0 -0 -0 -0 -0 -0 -0 -4 -4 -16 nan nan nan nan nan -3 nan nan nan nan nan nan nan nan nan nan nan nan nan nan nan nan nan nan
nan nan nan nan nan nan -0 nan nan nan -5 nan nan nan nan nan nan nan nan nan nan nan -1 -1 -1 -3 -6 nan nan nan nan -5 -0 -0 -0 -1 nan nan -4 -2 -2 -0 -0 -3 -3 nan nan -6 -6 -2 -0 -0 -0 -0 -0 -0 -0 -0 -0 -5 -5 -17 -23 nan nan nan nan -5 nan nan nan nan nan nan nan nan nan nan nan nan nan nan nan nan nan nan
nan nan nan nan nan nan nan nan nan nan nan nan nan nan nan nan nan nan nan nan nan nan -2 -2 -2 -8 nan nan nan nan -16 -4 -0 -0 -0 -0 nan nan -4 -5 -5 -0 -1 nan nan nan nan -3 -3 -2 -0 -0 -0 -0 -0 -0 -0 -0 -0 -7 -7 -19 -20 -15 -15 nan nan nan nan nan nan nan nan nan nan nan nan nan nan nan nan nan nan nan nan nan
nan nan nan nan nan nan nan nan nan nan nan nan nan nan nan nan nan nan nan nan nan nan -3 -8 -8 nan nan -6 -7 -7 -10 -6 -2 -2 -0 -0 -1 -1 -9 nan nan -1 -1 nan nan -4 -4 -2 -2 -3 -1 -0 -0 -0 -0 -0 -0 -0 -0 -12 -12 -20 -18 -16 -16 nan nan nan nan nan nan nan nan nan nan nan nan nan nan nan nan nan nan nan nan nan
nan nan nan nan nan nan -23 nan nan nan nan nan nan nan nan -0 -0 -0 -0 -0 -0 -2 -5 -5 -5 -2 -3 -0 -3 -3 -10 -12 -3 -3 -0 -0 nan nan nan -4 -4 -0 -0 nan nan -6 -3 -2 -2 nan -3 -0 -0 -0 -0 -0 -0 -0 -0 -15 -15 -20 -21 nan nan nan nan nan nan nan nan nan nan nan nan nan nan nan nan nan nan nan nan nan nan nan
-1 -2 -1 -0 -0 -0 -0 -0 -0 -0 -0 -1 -4 -4 -3 -0 -0 -0 -2 -3 -3 -3 -3 -2 -2 -2 -2 -4 nan nan nan -11 -2 -2 -0 -0 -0 -0 -1 -2 -2 -0 -0 nan nan nan nan nan nan nan nan -0 -0 -0 -0 -0 -0 -0 -6 -18 -18 -24 nan nan nan nan nan nan nan nan nan nan nan nan nan nan nan nan nan nan nan nan nan nan nan nan
-0 -0 -0 -0 -0 -0 -0 -0 -0 -0 -0 -0 -0 -0 -2 -2 -2 -2 -2 -2 -2 -2 -2 -2 -2 -2 -3 nan nan nan nan -3 -5 -5 -3 -0 -0 -0 -2 -4 -4 -1 -0 -3 -3 nan -2 nan nan nan nan nan -0 -0 -0 -0 -0 -0 -13 -20 -20 nan nan nan nan nan nan nan nan nan nan nan nan nan nan nan nan nan nan nan nan nan nan nan nan nan
-0 -0 -0 -0 -0 -0 -0 -0 -0 -0 -0 -0 -0 -0 -0 -2 -1 -1 -1 -2 -2 -4 -2 -2 -2 -2 nan nan nan nan nan -2 nan nan nan -0 -0 -0 -1 nan nan -5 -0 -2 -2 -4 -0 nan nan nan nan nan -1 -1 -0 -1 -1 nan nan -22 -22 nan nan nan nan nan nan nan nan nan nan nan nan nan nan nan nan nan nan nan nan nan nan nan nan nan
-0 -0 -0 -0 -0 -0 -0 -0 -0 -0 -0 -0 -0 -0 -0 -2 -1 -1 -2 -4 -4 -3 -1 -0 -0 -0 -0 nan nan nan nan -0 nan nan -3 -0 -1 -1 nan nan nan -5 -0 -2 -2 nan nan nan nan nan nan -0 -0 -0 -1 nan nan nan nan nan nan nan nan nan nan nan nan nan nan nan nan nan nan nan nan nan nan nan nan nan nan nan nan nan nan nan
-0 -0 -0 -0 -0 -0 -0 -0 -0 -0 -0 -0 -0 -0 -0 -1 -3 -3 nan nan nan nan -0 -0 -0 -0 -0 -1 nan nan nan nan -3 -3 -0 -0 nan nan nan nan nan -2 -1 nan nan nan nan nan nan nan -1 -0 -0 -0 -1 nan nan nan -24 nan nan nan nan nan nan nan nan nan nan nan nan nan nan nan nan nan nan nan nan nan nan nan nan nan nan nan
nan nan nan nan nan -0 nan nan -0 -0 -0 -0 -0 -0 -0 nan nan nan nan -0 -0 -0 -0 -0 -0 -0 -0 -0 nan nan nan nan -0 -0 nan -0 nan nan nan -2 -2 -1 -1 -1 -1 nan nan nan nan -2 -0 -0 -0 -0 -2 -13 -13 -16 -14 -25 -25 nan nan nan nan nan nan nan nan nan nan nan nan nan nan nan nan nan nan nan nan nan nan nan nan nan
nan nan nan nan nan nan nan nan nan nan nan nan nan nan -0 -0 -0 -0 nan -3 -3 -1 -0 -0 -0 -0 -0 -0 nan nan nan nan nan nan -1 -1 nan nan -3 -1 -1 -1 -1 -0 -0 -0 -0 -1 -1 nan -0 -0 -0 -0 -9 nan nan -13 -14 -13 -13 -21 nan nan nan nan nan nan nan nan nan nan nan nan nan nan nan nan nan nan nan nan nan nan nan nan
-0 nan nan nan nan nan nan nan nan nan nan nan nan nan nan nan -0 -0 -0 -2 -2 -1 -1 -0 -0 -0 -1 -1 nan nan nan nan -0 -0 -0 -1 nan nan -2 -1 -1 -1 -2 -1 -1 -0 -0 -1 -1 nan nan -0 -0 -0 -3 nan nan nan -16 -15 -15 nan nan nan nan nan nan nan nan nan nan nan nan nan nan nan nan nan nan nan nan nan nan nan nan nan
nan nan nan nan nan nan nan nan nan nan nan nan nan nan nan nan nan nan -0 nan nan nan nan nan nan nan nan nan nan nan nan nan -0 -0 -0 -1 -1 -1 -1 -1 -1 -1 -1 -1 -1 -0 -1 -1 -1 -2 -2 -0 -0 -0 -3 -6 -6 nan nan nan nan nan nan nan nan nan nan nan nan nan nan nan nan nan nan nan nan nan nan nan nan nan nan nan nan nan
nan nan nan nan nan nan nan nan nan nan nan nan nan nan nan nan nan nan nan nan nan nan nan nan nan nan nan nan nan nan nan nan -0 -0 -0 -0 -1 -1 nan nan nan nan -0 -1 -1 -1 -1 -0 -0 -0 nan -0 -0 -0 -1 -13 -13 nan nan nan nan nan nan nan nan nan nan -1 nan nan nan nan nan nan nan nan nan nan nan nan nan nan nan nan nan nan
nan nan nan nan nan nan nan nan nan nan nan nan nan nan nan nan nan nan nan nan nan -0 -0 nan nan nan nan nan nan nan nan nan nan nan -0 -1 nan nan nan nan nan nan -1 nan nan -1 -1 -0 -0 -0 -1 -0 -0 -0 -0 nan nan nan nan nan nan nan nan nan nan nan -1 -1 nan nan nan nan nan nan nan nan nan nan nan nan nan nan nan nan nan nan
nan nan nan nan nan nan nan nan nan nan nan nan nan nan nan nan nan nan nan nan nan nan nan -0 -0 -0 -0 nan nan nan nan nan nan nan -0 -1 nan nan nan nan nan -1 nan nan nan -1 -0 -0 -0 -1 -1 -0 -0 -0 nan nan nan nan nan nan nan nan nan nan nan nan -1 -3 nan nan nan nan nan nan nan nan nan nan nan nan nan nan nan nan nan nan
nan nan nan nan nan nan nan nan nan nan nan nan nan nan nan nan nan nan nan nan nan nan nan nan nan nan -0 -0 -2 -2 nan nan nan nan nan nan nan nan nan nan nan -1 -1 nan nan -1 -0 -0 -0 nan -0 -0 -0 -0 nan nan nan nan nan nan nan nan nan nan nan nan -1 -3 nan nan nan nan nan nan nan nan nan nan nan nan nan nan nan nan nan nan
nan nan nan nan nan nan nan nan nan nan nan nan nan nan nan nan nan nan nan nan nan nan nan nan nan nan nan nan -0 -0 -0 -1 nan nan nan nan nan nan nan nan nan nan nan nan nan -1 -0 -0 -0 nan nan -0 -0 -0 nan nan nan nan nan nan nan nan nan nan nan nan -1 -3 nan nan nan nan nan nan nan nan nan nan nan nan nan nan nan nan nan nan
nan nan nan nan nan nan nan nan nan nan nan nan nan nan nan nan nan nan nan nan nan nan nan nan nan nan nan -0 -0 -0 -0 -1 -0 -0 nan nan nan nan nan nan nan nan nan nan nan -1 -0 -0 -0 -1 nan -0 -0 -0 -0 nan nan nan nan nan nan nan nan nan nan nan -1 -3 nan nan nan nan nan nan nan nan nan nan nan nan nan nan nan nan nan nan
nan nan nan nan nan nan nan nan nan nan nan nan nan nan nan nan nan nan nan nan nan nan nan nan nan nan nan nan nan nan nan nan -1 -1 nan nan nan nan nan nan nan nan nan nan nan -1 -0 -0 -0 -0 -1 nan -0 -0 -0 nan nan nan nan nan nan nan nan nan nan nan -2 -4 nan nan nan nan nan nan nan nan nan nan nan nan nan nan nan nan nan nan
-0 nan nan nan nan nan nan nan nan nan nan nan nan nan nan nan nan nan nan nan nan nan nan nan nan nan nan nan nan nan nan nan nan nan nan nan nan nan nan nan nan nan -1 -0 -0 -0 -0 -0 -0 -0 -1 nan -0 -0 -0 nan nan nan nan nan nan nan nan nan nan nan -6 -7 nan nan nan nan nan nan nan nan nan nan nan nan nan nan nan nan nan nan
nan nan nan nan nan nan nan nan nan nan nan nan nan nan nan nan nan nan nan nan nan nan nan nan nan nan nan nan nan nan nan nan nan nan nan nan nan nan nan nan nan -0 -0 -0 -0 -0 -0 -0 -0 -0 -1 nan -0 -0 -0 nan nan nan nan nan nan nan nan nan nan nan nan nan nan nan nan nan nan nan nan nan nan nan nan nan nan nan nan nan nan nan
nan nan nan nan nan nan nan nan nan nan nan nan nan nan nan nan nan nan nan nan nan nan nan nan nan nan nan nan nan nan nan nan nan nan nan nan nan nan nan nan nan nan -0 -0 -0 -0 -0 -0 -0 -0 -0 nan -0 -0 -0 nan nan nan nan nan nan nan nan nan nan nan nan nan nan nan nan nan nan nan nan nan nan nan nan nan nan nan nan nan nan nan
nan nan nan nan nan nan nan nan nan nan nan nan nan nan nan nan -0 -0 nan nan nan nan nan nan nan nan nan nan nan nan nan nan nan nan nan nan -0 -0 nan nan nan nan -0 -0 -0 -0 -0 -0 -0 -1 -1 -0 -0 -0 nan nan nan nan nan nan nan nan nan nan nan nan nan nan nan nan nan nan nan nan nan nan nan nan nan nan nan nan nan nan nan nan
nan nan nan nan nan nan nan nan nan nan nan nan nan nan nan nan nan nan nan nan nan nan nan nan nan nan nan nan nan nan nan nan nan nan nan nan nan nan nan nan nan nan -0 -0 -0 -0 -0 nan nan nan -0 -0 -0 -0 nan nan nan nan nan nan nan nan nan nan nan nan nan nan nan nan nan nan nan nan nan nan nan nan nan nan nan nan nan nan nan nan
nan nan nan nan nan nan nan nan nan nan nan nan nan nan nan nan nan nan nan nan nan nan nan nan nan nan nan nan nan nan nan nan nan nan nan nan nan nan nan nan nan -0 -0 -0 -0 -0 -0 nan nan -0 -0 nan nan nan nan nan nan nan nan nan nan nan nan nan nan nan nan nan nan nan nan nan nan nan nan nan nan nan nan nan nan nan nan nan nan nan
nan nan nan nan nan nan nan nan nan nan nan nan nan nan nan nan nan nan nan nan nan nan nan nan nan nan nan nan nan nan nan nan nan nan nan nan nan nan nan nan nan nan -0 -0 -0 -0 nan nan nan nan nan nan nan nan nan nan nan nan nan nan nan nan nan nan nan nan nan nan nan nan nan nan nan nan nan nan nan nan nan nan nan nan nan nan nan nan
nan nan nan nan nan nan nan nan nan nan nan nan nan nan nan nan -0 -0 nan nan nan nan nan nan nan nan nan nan nan nan -0 nan nan nan nan nan nan nan nan nan nan nan nan -0 -0 -0 nan nan nan nan nan nan nan nan nan nan nan nan nan nan nan nan nan nan nan nan nan nan nan nan nan nan nan nan nan nan nan nan nan nan nan nan nan nan nan nan
nan nan nan nan nan nan nan nan nan nan nan nan nan nan nan nan nan nan nan nan nan nan nan nan nan nan nan nan nan nan nan nan nan nan nan nan nan nan nan nan nan nan nan nan nan nan nan nan nan nan -1 nan nan nan nan nan nan nan nan nan nan nan nan nan nan nan nan nan nan nan nan nan nan nan nan nan nan nan nan nan nan nan nan nan nan nan
nan nan nan nan nan nan nan nan nan nan nan nan nan nan nan nan nan nan nan nan nan nan nan nan nan nan nan nan nan nan nan nan nan nan nan nan nan nan nan nan nan nan nan -0 -0 -0 nan nan nan nan nan -0 nan nan nan nan nan nan nan nan nan nan nan nan nan nan nan nan nan nan nan nan nan nan nan nan nan nan nan nan nan nan nan nan nan nan
Wind_Speed
6 6 6 6 6 6 7 8 8 8 9 9 9 9 10 11 11 11 12 12 10 9 8 9 9 10 12 16 19 21 22 23 23 23 23 23 22 23 23 23 23 23 23 22 22 21 21 21 21 22 22 22 23 24 24 25 25 24 22 19 17 15 14 14 14 13 13 13 13 13 16 22 26 27 27 25 24 23 23 23 24 25 25 26 26 26
7 6 6 6 6 6 7 8 8 8 9 9 10 10 10 11 10 9 9 9 9 8 8 9 9 10 11 13 17 21 22 23 23 23 23 22 22 22 22 22 23 23 23 23 22 22 22 22 22 22 22 23 23 24 25 25 25 24 22 19 17 15 14 14 14 14 13 13 13 13 14 19 24 28 29 26 24 23 22 23 23 23 24 25 26 27
8 7 6 5 5 6 6 8 8 7 8 9 10 11 12 12 11 9 8 8 8 8 8 9 9 10 10 11 15 20 22 23 23 23 22 22 22 22 22 22 22 22 23 23 22 22 22 22 22 22 22 23 24 24 25 25 25 24 22 19 17 15 15 15 14 14 13 13 13 13 13 16 22 27 29 26 24 22 21 21 21 22 23 24 26 27
8 7 6 4 4 5 6 7 7 8 8 8 10 11 12 11 10 9 8 8 8 8 8 9 9 9 9 9 13 17 21 22 23 23 23 22 22 22 22 22 22 22 22 22 22 22 22 22 22 22 23 23 24 25 26 25 24 23 21 18 16 15 15 15 14 14 13 12 13 13 13 14 19 24 27 24 22 20 20 20 21 21 22 23 25 26
7 6 5 4 4 5 6 6 7 7 8 8 8 9 10 9 9 8 8 8 8 8 8 8 8 8 8 8 11 16 20 22 23 23 23 23 23 22 22 22 22 22 22 22 22 21 22 22 22 22 23 24 25 26 26 25 24 22 20 18 16 15 15 15 15 14 13 12 12 13 13 13 16 22 24 22 20 19 19 19 20 21 22 23 24 25
7 6 5 4 4 5 5 6 6 7 6 7 7 8 9 9 9 8 8 8 7 7 7 6 7 8 8 9 12 16 19 21 22 23 23 23 22 22 22 21 21 21 21 20 20 20 21 21 21 22 23 25 26 27 26 25 23 22 20 18 17 16 15 15 15 15 14 13 12 12 12 12 13 17 21 20 19 18 18 19 20 22 23 23 24 25
6 5 4 4 4 4 5 5 6 6 5 6 7 7 8 8 9 8 8 7 6 6 6 7 7 7 8 10 12 15 17 18 20 21 21 22 21 21 20 20 20 20 20 20 20 20 20 20 21 22 24 25 27 27 26 24 23 21 20 18 17 16 16 16 16 16 15 13 12 12 12 12 12 13 17 18 18 18 18 19 20 22 23 24 24 25
6 5 5 5 5 5 5 5 5 6 6 6 7 7 8 8 8 8 7 6 5 5 6 7 7 7 7 8 9 11 12 13 14 15 16 17 18 18 18 18 19 19 19 19 20 20 20 20 21 22 24 26 27 27 27 24 23 21 20 18 17 17 17 17 16 16 15 14 13 12 12 11 11 12 15 17 18 18 18 19 20 22 23 24 24 24
6 6 6 5 5 5 5 5 5 5 5 5 6 7 8 9 8 7 6 6 5 5 6 7 7 7 7 7 7 8 10 11 11 11 12 12 12 13 15 16 17 18 19 20 20 20 20 20 21 22 24 26 27 27 26 25 23 21 20 19 17 17 17 17 17 16 16 15 13 12 12 11 11 12 14 16 18 19 19 20 21 22 23 23 24 24
6 6 6 5 5 5 5 6 6 5 5 5 5 6 7 8 9 8 8 7 6 6 6 7 8 8 9 7 7 7 9 11 12 13 14 13 13 14 14 15 15 16 19 19 20 20 20 20 20 22 24 25 26 27 26 24 23 22 21 19 18 17 17 17 16 16 16 15 14 13 12 12 11 12 14 16 18 19 20 20 21 22 22 23 23 24
6 6 6 5 5 5 5 5 5 5 5 5 6 6 6 7 7 8 9 9 9 7 6 7 7 8 9 8 8 8 8 8 9 11 12 13 14 15 16 16 16 17 18 19 19 19 19 19 19 21 23 25 26 25 25 24 23 22 21 20 18 17 17 16 16 16 16 16 15 14 13 12 12 12 14 16 18 20 20 21 21 21 21 22 22 23
6 6 5 5 5 5 5 5 5 5 5 5 6 6 6 6 6 7 9 10 10 9 8 7 7 7 8 8 8 8 7 7 6 6 7 8 9 10 11 12 13 14 15 15 16 16 17 17 18 19 21 23 24 24 23 22 21 21 21 20 18 17 17 16 16 16 16 16 16 15 14 13 13 13 14 16 18 19 20 21 21 21 20 20 21 22
5 5 5 5 5 5 5 6 5 5 5 5 5 6 6 6 6 6 7 9 9 9 9 8 8 8 7 6 6 5 6 6 6 5 5 5 6 6 7 8 8 8 9 9 10 11 13 14 16 17 19 21 22 22 22 21 21 21 21 20 19 18 17 16 16 16 16 16 16 15 14 13 13 14 15 17 18 19 20 21 21 21 20 20 20 21
6 6 6 6 6 5 6 6 6 6 5 5 5 6 6 7 7 7 8 8 8 8 8 9 9 8 6 5 5 4 5 5 5 5 5 5 5 5 6 7 7 7 7 7 8 8 10 10 11 13 16 18 20 20 20 20 20 21 21 20 19 18 18 17 16 16 16 16 16 15 14 14 14 15 16 17 18 19 20 20 21 22 22 21 21 21
6 6 7 7 6 6 6 6 6 6 5 4 5 5 6 7 8 8 8 8 8 8 8 9 9 8 5 4 3 3 4 4 5 5 7 6 5 5 5 7 7 8 7 7 8 8 9 8 8 9 12 15 17 18 18 18 19 20 20 20 20 19 18 17 16 16 16 16 16 15 14 14 14 15 16 18 19 20 20 20 21 22 23 22 22 21
6 6 7 7 7 7 6 6 5 5 4 4 5 5 7 7 8 8 8 8 8 7 8 9 9 8 5 4 3 3 4 4 5 6 8 8 6 5 4 6 7 8 8 7 7 7 7 6 7 8 10 14 17 19 20 19 20 20 20 20 20 19 18 17 17 16 16 16 15 14 14 14 15 15 17 18 19 20 20 20 21 22 23 23 23 23
6 6 6 7 7 7 6 5 4 4 4 4 5 6 6 7 7 7 7 7 7 6 6 7 7 7 5 4 3 3 4 5 6 7 9 9 8 6 4 6 7 8 8 8 7 7 7 7 7 8 10 14 18 20 21 21 21 21 21 20 20 19 19 18 17 16 16 15 15 14 14 14 15 16 17 19 20 20 20 20 21 21 23 23 24 24
6 6 6 7 7 6 5 4 4 4 4 5 5 6 6 7 7 7 7 7 7 7 7 7 6 6 6 5 4 3 4 5 7 8 9 9 8 6 4 5 7 8 9 8 8 7 7 7 7 8 11 16 19 21 22 22 22 21 21 20 20 19 19 18 17 16 16 15 14 14 14 14 15 16 18 19 20 20 20 20 21 21 22 23 24 24
6 6 6 6 6 5 5 4 4 4 4 5 6 6 7 7 7 7 7 7 7 7 7 7 7 6 6 6 5 5 5 6 7 8 9 10 9 7 5 6 7 9 9 8 8 7 6 7 9 12 15 19 21 23 24 24 23 23 22 21 20 19 19 18 17 16 16 15 15 14 14 15 16 17 19 20 20 20 20 20 20 21 22 23 23 24
6 6 6 6 6 5 5 5 4 4 5 5 6 7 7 8 8 8 7 7 7 7 7 7 8 7 7 7 6 6 5 6 7 8 9 10 9 8 5 6 7 9 9 8 7 6 6 7 9 12 16 19 21 23 24 25 25 24 23 22 21 20 19 18 17 16 16 16 15 15 15 16 17 18 19 20 20 20 20 20 20 21 22 22 23 24
7 7 5 4 4 4 5 5 5 5 7 7 7 7 8 8 8 8 7 7 7 7 7 7 7 7 6 7 7 6 6 6 7 7 7 8 8 7 5 6 7 8 8 7 6 6 6 7 8 9 13 17 20 22 24 25 26 25 25 23 21 20 18 18 17 16 16 16 16 16 16 17 18 19 21 21 21 20 20 20 20 21 22 22 23 24
8 8 6 5 4 5 6 5 6 8 9 8 7 7 8 8 8 8 8 7 7 8 8 8 7 7 7 8 8 7 6 6 6 6 5 7 8 8 5 5 6 7 8 8 7 6 6 7 8 10 13 18 21 23 25 26 27 26 25 23 21 19 18 17 17 17 16 16 17 17 17 18 19 20 22 22 21 20 20 19 20 20 21 22 23 24
8 8 7 5 5 5 6 7 7 8 9 9 9 9 7 8 8 8 8 8 8 8 8 7 7 7 8 8 8 7 6 5 5 5 5 8 9 8 5 5 6 7 8 8 7 7 7 8 9 10 13 18 22 24 26 28 28 27 25 22 20 18 17 16 16 16 16 16 17 17 18 19 21 22 23 22 21 21 20 20 20 20 21 22 23 24
6 6 5 5 5 6 6 7 8 8 9 9 9 8 8 8 9 9 8 8 7 7 6 7 8 8 9 8 8 7 5 4 3 4 5 6 7 7 5 5 6 8 9 7 7 8 8 9 9 10 11 16 20 24 27 28 29 27 25 21 18 16 15 14 14 15 15 16 17 18 19 20 22 23 23 22 22 21 20 20 20 20 20 21 22 23
7 7 7 7 8 9 9 10 10 10 9 7 6 6 7 8 8 8 7 7 7 7 7 8 9 9 8 7 7 6 4 3 4 4 4 5 6 7 5 5 6 8 8 8 7 7 8 9 10 9 9 13 18 23 26 28 28 27 24 20 16 14 12 12 13 14 15 16 17 19 20 22 23 23 23 22 22 21 21 21 21 21 21 21 21 22
12 12 12 13 15 17 18 18 17 16 15 12 8 6 5 6 6 6 7 7 7 7 7 8 8 8 7 6 5 5 4 3 4 4 4 4 6 7 6 5 5 7 8 8 7 8 9 10 10 10 9 11 15 20 25 27 27 25 22 18 15 12 10 10 11 13 15 16 18 20 21 22 23 23 23 23 22 22 22 21 21 21 20 20 20 21
17 18 19 20 20 20 20 20 20 20 20 18 14 11 8 6 6 7 8 7 6 6 6 7 8 8 7 6 5 5 5 4 3 4 4 5 6 6 5 4 4 6 8 8 8 8 10 10 10 9 9 9 12 16 22 24 24 23 20 17 13 10 8 9 10 12 15 17 19 20 22 23 23 23 23 23 22 22 22 22 21 20 19 18 17 17
17 18 18 18 18 19 18 18 18 18 18 18 18 16 12 8 7 7 7 5 5 5 6 7 7 7 6 6 6 5 6 5 4 4 4 5 5 4 4 4 4 5 7 8 8 9 10 10 9 9 9 9 11 13 17 20 21 20 18 15 11 9 7 7 9 11 14 16 18 20 22 23 23 23 23 23 23 23 22 22 21 20 18 15 12 11
15 16 17 17 17 17 17 16 16 16 17 17 17 15 11 7 6 6 6 5 4 5 6 7 7 7 7 7 7 6 6 5 5 4 4 3 4 4 4 4 4 5 6 7 7 7 7 7 7 7 8 10 10 10 11 14 16 16 15 12 9 7 6 6 7 10 13 15 17 20 22 22 23 23 23 23 23 23 23 22 20 18 14 12 10 9
10 12 12 13 13 13 13 11 12 13 15 16 16 14 11 7 5 5 5 5 5 6 7 7 7 7 6 7 7 6 5 4 3 2 2 3 3 4 4 5 5 5 5 5 6 6 6 5 5 6 7 9 9 9 8 9 10 10 11 9 7 6 5 5 6 8 10 13 16 19 21 22 23 23 23 23 23 23 23 22 19 15 11 10 9 9
8 8 8 8 8 8 8 8 8 9 11 13 13 12 9 6 5 4 5 5 5 6 7 7 7 7 6 5 5 5 4 3 1 2 2 3 3 4 5 5 5 5 4 4 4 5 6 6 6 7 8 8 7 7 7 7 7 7 7 6 5 5 4 3 4 5 8 11 15 18 21 22 22 23 23 23 23 23 23 22 19 15 11 10 9 9
7 7 7 7 6 6 6 6 6 6 7 8 8 8 8 7 6 5 5 5 5 5 6 7 7 7 6 6 6 6 5 4 3 4 4 3 4 4 4 5 5 5 3 3 3 4 5 5 6 8 11 10 8 6 6 6 6 6 7 7 5 4 4 3 3 3 5 9 14 17 20 22 22 23 23 23 24 24 23 23 20 15 11 10 10 10
7 7 6 6 6 6 5 5 5 5 5 5 5 6 6 6 7 6 5 5 5 5 6 6 7 7 7 7 7 7 7 6 6 6 6 4 4 4 3 4 4 4 4 3 3 4 5 6 6 7 10 11 10 7 5 6 6 6 7 7 6 4 3 3 2 2 3 6 10 14 18 21 22 23 23 24 24 24 24 24 21 17 13 11 10 10
8 7 7 6 6 5 5 5 5 5 5 5 6 6 5 5 6 6 6 6 5 5 6 6 6 7 7 7 7 8 8 7 8 7 7 5 4 3 4 4 4 4 4 3 3 4 5 7 7 7 8 10 11 8 5 5 6 6 6 6 5 3 3 3 2 2 3 4 7 9 13 16 19 21 21 23 24 24 25 25 23 19 15 12 11 11
7 7 7 6 5 5 5 5 5 5 5 5 5 6 6 6 6 6 6 6 6 6 6 6 6 7 7 7 8 8 8 7 7 7 7 5 4 4 4 4 4 4 4 4 4 4 5 7 7 7 7 9 10 8 5 4 4 4 4 4 3 3 3 3 3 3 3 4 6 7 9 10 13 16 17 20 22 24 25 25 23 21 18 14 12 11
6 6 6 5 5 5 5 5 5 5 5 5 5 5 5 6 6 6 6 6 6 7 7 7 7 7 7 8 8 9 9 8 8 8 7 6 5 4 4 5 5 5 4 5 5 5 5 6 7 8 7 9 9 7 4 3 3 3 4 4 3 2 2 2 3 3 4 5 6 7 8 9 10 12 13 18 21 23 25 25 23 21 18 16 14 12
6 6 6 5 5 5 5 5 5 5 5 5 5 5 5 6 6 6 6 6 7 7 8 9 9 9 10 9 9 10 10 9 9 9 9 7 6 5 5 6 6 6 6 6 6 6 6 7 7 7 7 9 9 7 3 3 3 3 3 3 2 2 1 2 3 3 4 6 6 7 8 9 9 10 11 16 19 22 23 23 22 19 18 16 15 14
6 6 6 5 5 4 5 5 5 5 5 5 5 6 6 6 7 7 7 7 8 8 8 8 9 10 13 14 14 13 12 12 12 12 12 9 8 7 7 7 7 8 7 7 7 7 7 7 7 7 7 9 9 7 3 3 3 3 3 3 2 2 1 1 2 3 4 6 7 7 8 9 9 10 10 12 14 15 16 16 16 15 15 14 14 14
6 6 6 6 5 5 5 5 5 5 5 6 6 6 6 7 7 8 7 7 8 8 9 9 9 9 12 14 16 16 16 15 15 14 14 11 10 8 8 8 8 8 8 7 7 8 8 7 7 6 7 8 9 7 3 2 3 3 3 2 1 1 1 1 2 4 5 6 7 8 8 9 9 10 10 11 12 12 12 12 12 12 13 11 11 12
6 6 6 7 6 6 5 6 6 6 6 6 7 7 7 7 7 7 7 7 7 7 8 9 9 9 10 11 13 14 14 13 13 13 12 11 10 9 8 8 8 8 8 8 8 8 9 8 8 9 8 7 8 9 5 1 2 2 3 2 1 1 1 1 1 4 6 7 8 9 9 9 10 10 11 11 12 12 12 11 11 11 12 11 10 10
7 6 6 6 6 6 6 6 6 6 6 6 6 6 6 6 6 6 6 6 6 6 6 7 7 7 8 9 10 11 12 12 12 12 11 11 11 10 8 8 8 8 8 8 8 8 9 9 10 10 9 8 9 11 11 5 1 3 4 3 2 1 1 2 2 4 6 7 8 9 9 10 10 11 11 11 11 11 10 10 11 11 11 10 10 10
7 7 7 6 6 6 6 6 6 6 6 5 5 5 5 5 5 6 6 5 5 4 4 4 5 6 7 7 7 8 8 9 9 10 10 11 10 10 9 8 8 8 8 8 8 9 9 10 10 10 9 7 8 10 10 5 1 3 4 3 2 2 2 2 3 5 7 8 9 9 10 10 10 11 11 11 10 10 10 10 11 11 11 9 9 9
7 6 6 6 6 6 6 7 6 6 5 5 5 5 5 5 5 6 6 5 5 5 5 5 5 6 6 6 6 5 5 6 7 8 8 9 10 10 10 10 9 9 8 8 8 9 9 10 10 9 9 7 8 10 10 4 1 3 3 3 3 3 1 2 3 5 8 9 10 10 10 10 10 10 10 10 9 9 9 9 10 11 10 10 9 8
6 6 6 6 6 6 6 6 5 5 5 5 5 5 5 6 6 6 6 5 5 5 5 5 5 5 6 6 6 5 5 5 5 6 7 8 9 9 10 10 10 10 9 8 7 7 8 8 8 8 8 8 9 10 8 3 2 3 3 3 3 2 1 2 3 4 7 8 9 9 9 9 8 8 8 7 7 8 8 8 8 8 7 8 8 8
6 6 6 6 6 6 6 6 6 6 6 6 6 6 6 6 6 6 6 5 5 5 5 5 5 4 4 5 5 5 6 5 5 4 5 7 9 10 10 9 9 9 9 8 8 7 7 6 7 7 8 9 10 8 5 3 3 4 4 4 3 2 1 3 3 3 5 7 8 8 8 9 9 9 8 7 7 7 8 9 9 9 8 8 8 9
6 6 7 7 7 7 7 7 6 6 6 6 6 6 6 6 6 6 6 6 5 5 5 4 4 4 4 5 6 6 6 6 6 5 4 5 5 6 7 7 7 7 7 7 8 8 7 7 7 7 9 8 5 3 3 4 5 5 4 4 2 0 2 3 2 3 5 7 7 8 9 9 9 9 8 8 7 7 7 8 9 10 9 9 9 9
7 7 7 7 7 7 7 7 7 6 6 6 6 6 6 6 6 6 6 6 6 5 5 4 4 4 5 5 5 6 6 7 7 7 6 6 5 5 5 6 6 7 6 7 7 8 8 7 8 8 7 3 3 4 5 6 6 5 4 3 1 1 1 1 1 2 4 6 8 9 10 10 9 8 8 8 7 6 5 6 7 8 9 9 9 9
8 7 7 7 7 7 7 7 7 7 7 7 7 7 7 7 8 8 7 6 6 6 5 5 4 4 5 5 5 6 7 7 8 8 8 7 7 7 6 6 6 6 6 6 7 7 7 6 7 6 3 2 4 6 7 6 6 5 3 2 1 0 1 0 1 1 3 5 7 10 11 10 9 9 9 9 8 6 5 5 5 6 7 8 9 9
7 7 7 7 7 7 7 7 7 7 7 7 7 7 7 8 9 9 7 7 6 6 5 5 5 5 5 5 6 6 7 7 8 8 8 8 8 8 8 8 7 6 6 5 5 4 4 4 4 7 9 7 7 7 7 6 5 4 3 2 1 1 1 1 2 2 3 4 6 7 8 8 8 9 10 10 9 8 7 6 6 6 6 7 8 9
7 7 7 7 8 8 8 7 7 7 8 8 8 7 7 7 7 7 7 7 6 6 5 6 6 6 6 6 7 7 8 8 8 8 8 9 9 9 9 9 8 7 6 5 3 2 2 2 4 9 15 14 11 8 5 5 4 4 3 2 1 0 1 2 3 4 4 5 6 6 7 7 7 8 9 10 10 9 8 7 6 6 5 6 7 8
8 7 7 7 7 8 8 7 7 7 8 8 8 8 7 7 7 7 7 7 6 6 6 6 6 6 7 7 7 8 8 8 8 8 9 9 9 9 9 9 8 7 6 5 4 3 2 2 3 8 14 17 16 12 6 4 4 4 4 3 2 1 1 3 4 5 6 6 6 6 7 7 7 7 8 9 10 9 8 8 7 6 6 7 7 8
Wind_Direction
302 306 308 311 311 309 307 311 312 311 309 309 309 308 305 305 303 301 300 301 301 300 301 300 299 298 298 301 302 303 303 302 302 301 299 298 296 294 292 291 291 291 291 292 292 292 292 291 291 290 290 290 290 290 290 290 288 285 279 270 265 263 265 271 278 287 296 300 292 272 245 229 221 216 212 208 204 202 201 201 201 202 203 203 204 205
301 302 302 307 308 307 305 309 309 308 306 306 306 305 305 303 301 300 299 299 298 299 300 300 299 298 296 298 301 302 302 302 301 300 298 296 294 292 291 289 288 288 288 289 289 289 289 289 288 288 287 287 287 287 287 286 285 283 279 272 266 263 264 269 275 282 290 297 295 283 259 236 225 219 214 210 206 203 201 200 200 200 200 201 202 204
299 299 300 304 307 306 304 307 307 305 303 302 302 302 302 301 300 299 299 300 299 299 298 300 300 300 299 299 300 301 301 300 300 299 297 295 294 292 290 289 287 287 287 287 287 287 287 286 286 285 285 285 284 284 283 283 282 281 278 271 266 263 264 267 272 278 284 293 296 291 272 245 229 221 215 211 207 203 201 200 199 198 198 199 200 202
294 296 299 303 303 301 300 303 304 303 302 300 300 300 300 300 299 299 298 298 298 298 298 301 302 302 301 299 298 299 299 299 299 299 298 297 295 294 292 290 288 287 285 285 284 284 284 284 284 284 283 283 283 282 281 280 280 279 276 271 265 261 261 265 269 274 280 288 294 294 284 256 233 221 215 211 206 202 200 199 199 198 198 199 200 201
289 292 297 301 301 300 299 299 301 301 301 301 301 301 301 300 300 299 297 296 296 298 301 303 303 302 299 296 296 297 298 299 300 300 299 298 297 295 293 290 288 286 284 283 282 282 282 282 282 282 283 282 282 281 280 279 278 278 276 270 263 258 258 261 265 269 275 283 291 295 291 266 238 223 215 210 205 202 200 199 199 199 199 200 201 202
287 290 295 298 299 299 300 301 302 303 303 303 302 302 302 302 300 298 296 297 299 302 305 305 302 298 295 294 295 297 299 300 300 300 300 298 297 295 293 291 289 286 285 284 283 282 282 281 282 282 282 282 282 281 280 279 278 277 275 269 261 254 253 256 260 265 270 277 287 294 296 278 250 229 216 210 206 202 200 199 199 199 200 201 202 203
288 290 294 295 295 296 297 299 301 303 305 305 305 304 303 301 298 295 294 297 302 306 307 303 299 295 293 293 295 298 299 300 300 299 299 298 297 296 294 293 292 291 290 289 288 286 284 283 282 282 282 282 281 281 280 279 278 276 274 267 259 252 249 252 256 261 266 272 281 290 295 286 265 240 222 213 207 204 202 200 200 200 201 201 202 203
290 293 294 296 296 296 295 295 298 301 302 304 305 306 305 301 297 295 295 298 303 306 305 303 300 297 295 293 295 297 298 298 297 297 297 296 296 296 295 296 296 296 296 294 292 289 286 284 283 282 282 281 280 280 279 277 276 275 272 266 258 250 246 248 252 257 263 268 275 284 293 289 274 252 230 218 210 206 203 201 200 200 200 201 201 202
291 295 296 295 296 297 297 296 296 297 300 300 301 302 302 301 300 300 302 304 306 306 305 305 303 302 299 297 296 295 295 294 293 293 293 293 294 295 298 301 301 300 298 296 292 289 286 284 284 283 282 281 280 278 276 275 274 272 271 265 257 248 243 245 249 254 259 264 270 278 287 288 279 261 239 223 214 208 204 202 201 200 200 200 200 200
291 294 295 294 293 294 295 296 298 299 298 295 294 294 295 300 304 308 311 309 308 307 305 306 306 305 304 302 298 295 294 292 291 292 293 297 300 302 306 307 305 301 297 294 291 288 285 284 284 284 284 282 279 277 273 271 270 270 269 265 258 249 242 242 246 251 257 261 267 273 281 284 279 265 246 227 216 209 204 201 200 198 198 198 198 198
293 294 294 293 292 292 291 294 296 299 298 296 294 293 294 301 308 312 312 310 309 308 307 306 305 304 304 303 300 297 294 291 290 291 294 302 306 308 309 307 303 299 295 293 290 287 285 284 284 284 284 283 280 277 272 268 267 266 266 263 257 248 240 240 243 248 254 258 263 269 276 281 278 267 250 231 218 209 203 200 198 196 195 195 195 196
296 295 294 293 293 294 293 293 294 296 298 299 300 301 302 307 310 310 308 306 307 308 309 307 303 300 298 298 298 297 294 290 289 293 301 309 311 311 309 305 301 298 296 293 290 287 285 284 284 284 284 283 280 277 272 267 264 263 262 260 254 247 238 237 240 245 250 255 260 266 272 276 275 267 253 234 220 210 203 199 196 194 193 193 193 194
291 292 292 293 293 294 296 297 297 297 298 300 303 305 306 309 309 306 301 300 302 306 310 308 303 297 292 289 289 290 291 293 298 306 313 312 309 307 305 302 300 298 296 293 288 285 284 284 284 283 282 280 278 275 271 266 262 260 258 256 251 244 236 235 237 241 247 252 257 262 269 273 271 264 251 235 222 211 204 199 196 194 192 191 191 191
290 291 292 292 292 293 294 294 294 293 293 297 301 303 306 307 306 303 297 297 300 305 307 303 300 297 293 288 284 285 292 303 310 314 310 305 302 302 303 300 298 296 294 289 285 281 281 283 283 281 279 278 276 274 270 265 261 257 256 253 248 241 233 232 234 238 244 249 254 260 265 268 267 260 248 233 222 212 205 200 197 195 193 192 190 190
293 293 292 290 290 289 289 288 287 286 289 296 302 304 305 303 302 300 299 300 303 306 305 300 296 294 292 289 287 292 305 315 318 314 308 303 300 300 301 299 296 293 289 285 282 280 281 281 279 277 276 274 272 271 268 264 258 254 253 250 245 239 232 230 231 236 241 246 252 257 263 266 263 255 244 230 220 212 206 201 198 196 195 193 192 190
291 290 288 287 286 285 283 282 283 286 293 300 304 304 302 300 300 300 299 301 304 306 304 301 299 297 293 290 294 307 322 324 320 314 310 304 302 301 301 297 294 290 286 282 281 281 282 279 274 272 272 271 270 268 266 263 257 253 251 248 243 237 230 229 230 234 239 245 250 255 261 263 260 252 240 226 217 210 205 202 199 197 195 194 193 191
287 285 284 283 283 282 282 283 287 292 300 303 301 298 295 295 296 297 297 299 301 301 299 299 300 301 301 301 306 318 332 327 320 314 308 303 301 301 300 293 290 288 285 281 279 279 281 278 275 272 271 271 271 269 267 262 257 253 250 245 240 234 228 226 228 232 238 243 249 255 260 261 257 248 236 222 214 208 205 202 199 197 196 194 193 192
283 281 281 281 282 284 289 293 296 298 299 298 296 294 292 291 290 291 292 294 294 294 293 292 293 295 298 300 305 319 334 327 318 311 306 300 298 298 297 288 284 282 281 277 275 274 275 273 271 270 271 273 272 271 270 266 260 254 249 243 237 230 225 224 226 231 237 243 249 254 258 259 254 245 232 219 211 206 203 201 200 198 196 194 192 191
282 282 282 283 285 288 291 291 292 293 294 293 294 294 291 289 287 287 286 286 285 284 285 286 286 286 288 290 297 310 327 321 313 307 302 297 296 296 297 286 280 277 276 274 273 273 272 270 268 269 271 272 272 272 270 267 262 256 250 242 235 228 223 223 226 231 237 243 249 253 256 255 250 241 229 216 208 204 201 201 200 199 197 195 193 191
284 281 279 281 283 284 282 279 279 281 284 287 289 289 287 286 284 282 279 277 275 275 277 279 281 282 283 287 294 305 320 316 308 300 295 293 292 293 294 284 278 276 274 274 274 276 277 276 275 274 273 273 273 272 271 268 263 257 250 241 234 227 222 223 226 232 238 243 248 251 253 252 246 237 226 214 206 201 199 199 199 199 198 196 194 192
282 277 269 267 269 272 272 271 272 277 282 284 284 281 279 278 276 273 271 271 272 273 274 275 277 279 285 290 295 302 311 305 298 294 292 290 289 289 290 279 274 275 278 281 284 286 286 283 280 277 275 275 275 274 273 269 264 257 248 240 232 225 221 223 227 233 239 243 246 248 248 246 240 232 222 211 204 199 196 196 197 197 198 196 195 193
274 271 266 260 259 264 273 277 280 280 279 276 272 268 267 267 267 267 268 269 271 273 274 274 277 283 289 291 292 293 292 282 280 283 291 290 288 287 287 281 281 285 288 291 293 292 287 282 278 275 274 275 276 276 274 270 264 256 245 236 228 223 220 223 228 234 239 242 243 244 243 239 233 226 217 208 201 196 194 193 194 194 195 195 194 193
263 265 266 262 260 263 271 274 273 270 266 260 256 254 255 256 259 263 267 268 269 270 272 276 281 285 285 284 283 281 272 262 264 273 283 284 285 286 292 296 297 295 291 292 293 293 289 283 279 276 275 275 276 275 274 269 262 253 241 231 223 219 220 224 229 234 239 240 240 239 236 232 226 219 212 204 198 193 191 190 190 191 191 191 191 191
266 269 272 266 260 258 260 261 259 256 251 248 247 246 246 247 250 254 258 261 265 271 278 284 285 283 279 278 278 276 269 261 261 267 272 277 282 288 300 301 295 291 288 290 294 295 293 285 280 276 275 274 274 273 271 266 259 249 235 225 219 216 219 225 231 235 238 238 237 234 229 224 219 212 206 199 194 191 189 189 188 187 187 187 187 186
287 284 281 275 269 266 265 264 263 263 263 258 251 245 243 244 247 250 254 260 267 274 280 282 282 281 282 285 285 284 282 269 261 261 268 276 283 286 290 289 289 290 292 294 295 294 291 284 279 275 272 271 270 269 267 261 252 241 227 218 213 213 219 226 232 236 238 236 233 228 222 217 211 206 200 195 191 189 188 187 187 186 185 184 183 182
293 291 289 289 288 287 288 289 289 290 293 292 287 279 269 265 264 266 268 269 272 274 277 278 279 281 286 289 288 285 285 271 260 258 268 277 282 283 282 284 288 292 295 296 296 292 287 282 278 274 269 268 267 265 261 254 244 232 218 211 208 210 219 227 233 236 237 233 228 222 215 210 204 199 194 191 189 187 187 186 185 185 183 183 182 181
300 300 300 300 300 300 299 299 299 299 298 297 295 293 291 290 285 280 275 275 276 278 279 280 282 284 288 285 283 283 286 282 271 263 263 269 273 276 279 287 294 296 297 295 292 286 280 277 274 272 268 266 265 261 251 241 231 220 208 204 204 209 218 228 235 237 236 229 222 215 208 202 198 194 190 188 187 186 185 184 183 182 181 181 181 181
308 308 308 307 305 304 302 301 302 302 302 299 296 294 292 290 283 278 276 283 288 288 282 281 283 286 288 287 287 288 289 284 275 265 257 259 264 272 285 297 300 300 299 295 290 283 274 269 266 265 262 260 259 254 242 227 217 208 200 199 200 206 215 227 233 235 233 225 216 208 201 196 192 189 187 185 185 184 183 181 179 178 178 179 181 182
310 309 307 306 305 304 305 306 307 305 303 299 295 293 291 289 285 284 289 301 302 293 283 280 281 283 287 290 291 290 286 278 270 265 264 267 272 281 295 301 302 302 304 301 297 290 278 268 263 260 257 253 249 243 233 215 205 198 194 195 198 202 209 221 229 232 229 219 210 202 195 191 188 186 184 183 182 182 180 177 175 175 175 178 180 181
307 305 304 303 302 303 303 303 301 300 298 296 295 295 295 294 292 292 297 298 291 283 277 277 278 280 285 291 292 290 282 271 267 276 309 299 292 291 301 302 304 308 316 316 315 311 304 295 285 276 268 252 240 227 213 202 195 192 192 194 197 199 203 212 222 226 225 214 205 197 191 188 185 183 182 182 181 179 177 174 172 171 174 178 179 178
303 301 298 297 296 296 295 292 291 291 293 295 296 296 296 292 287 281 281 279 276 274 274 275 276 278 281 286 287 285 281 276 301 351 349 311 295 293 301 302 304 310 323 328 327 323 316 312 311 309 305 279 247 218 198 190 188 191 195 197 200 201 199 199 208 216 218 210 202 195 189 185 183 181 181 180 179 177 174 172 170 170 174 176 176 176
302 300 297 294 292 290 288 287 287 288 289 290 290 288 286 283 279 275 272 270 269 270 271 273 274 274 274 272 272 273 275 278 294 310 314 297 289 288 294 297 301 306 317 322 315 308 305 306 314 321 322 307 282 238 198 188 188 193 197 201 204 203 192 181 185 201 212 207 201 194 189 184 181 179 179 179 177 176 173 171 170 171 174 175 175 173
304 301 296 293 291 288 286 285 284 284 283 283 281 279 278 277 275 273 269 265 263 263 265 268 270 270 269 266 265 266 269 271 278 284 286 282 282 284 289 291 295 299 306 297 282 272 272 283 297 308 310 302 288 263 215 191 186 191 196 200 201 197 182 169 168 184 202 204 199 194 188 183 180 178 177 177 176 175 173 172 172 172 174 174 172 169
303 300 296 294 291 288 286 284 283 282 281 280 279 277 275 273 272 271 268 264 260 257 257 260 262 265 266 266 265 265 266 266 269 271 272 269 272 280 285 285 285 288 292 284 273 265 265 271 280 292 299 294 285 269 226 191 181 183 189 190 188 183 175 160 159 174 192 194 193 190 186 182 178 176 176 176 176 175 174 173 173 174 175 174 171 166
302 300 298 295 293 291 290 288 287 286 284 282 280 278 277 274 271 269 267 263 259 255 251 251 253 255 258 261 264 266 266 267 266 266 266 263 267 276 281 276 274 274 274 270 269 269 271 272 274 280 290 292 285 271 232 187 170 169 177 174 170 164 170 157 155 164 180 186 185 183 182 179 177 176 176 176 176 175 174 174 174 175 175 174 171 167
304 302 301 299 298 297 296 296 295 293 290 286 282 279 277 274 271 267 264 262 259 256 253 250 248 248 248 252 256 261 265 268 268 266 263 260 262 268 273 269 266 263 262 263 264 267 272 276 276 276 279 282 279 270 237 179 153 152 164 161 160 164 180 161 157 162 174 182 181 178 175 172 172 173 175 174 173 172 172 172 173 173 173 173 171 169
307 306 305 303 302 301 302 301 299 297 294 290 285 282 279 275 272 269 266 261 259 257 256 254 251 248 246 246 249 253 259 264 265 263 259 257 255 257 262 265 262 259 255 259 263 267 272 276 278 277 274 270 266 260 239 170 144 139 150 158 164 172 180 164 163 170 181 184 179 173 168 166 164 164 167 169 169 168 169 169 168 168 167 167 166 165
313 312 312 310 309 307 307 304 302 300 297 294 291 287 284 279 274 271 268 263 259 257 256 254 253 252 249 249 249 250 254 258 260 259 257 253 250 249 253 260 260 256 250 252 256 262 268 271 273 274 272 270 265 258 232 169 147 146 155 156 151 139 128 147 168 181 191 185 176 167 162 161 158 156 157 163 165 166 166 166 164 161 157 156 156 156
319 318 317 318 317 315 312 307 305 302 300 296 293 289 286 281 277 273 269 265 262 258 255 254 254 253 251 251 251 252 253 254 255 255 254 250 246 244 247 254 257 257 252 248 247 250 256 260 260 261 264 276 281 282 268 168 149 152 154 133 98 64 51 95 174 190 196 185 172 162 159 158 156 154 155 161 163 164 163 160 157 154 152 150 149 147
323 323 322 322 320 317 313 309 306 303 299 296 294 292 289 286 283 278 273 269 265 262 258 255 255 254 253 252 252 252 253 253 252 251 251 246 242 240 242 248 255 258 256 248 244 243 245 250 252 253 250 263 280 288 291 237 160 148 132 116 93 27 359 1 217 203 198 184 172 163 158 157 156 155 158 162 164 164 161 157 154 153 154 152 150 146
328 327 324 322 319 316 312 309 305 302 300 298 297 295 293 291 289 287 283 278 274 270 268 264 263 262 260 257 255 253 252 252 252 250 249 247 244 243 242 247 253 257 257 251 245 239 237 242 248 251 249 250 264 274 278 270 191 128 119 120 118 82 356 325 254 216 198 182 170 162 156 155 155 157 159 161 163 163 158 154 152 152 155 156 155 153
330 328 324 321 318 316 313 310 308 307 306 303 300 298 296 296 296 295 295 293 291 288 285 283 281 279 276 270 262 255 251 250 250 250 251 251 250 249 248 250 253 254 255 253 247 241 235 238 243 247 244 242 253 262 268 266 229 96 98 104 89 57 16 311 248 215 192 176 166 159 154 156 158 158 158 159 159 157 154 152 152 152 154 156 156 155
329 326 322 318 315 313 311 313 315 316 316 313 308 304 302 301 301 300 300 300 301 301 300 297 293 289 287 284 280 272 261 254 251 251 252 253 253 253 252 252 252 251 251 252 250 246 239 238 240 240 237 235 246 254 257 246 149 84 76 83 84 82 64 261 230 206 185 171 163 159 158 158 158 157 155 153 153 152 150 150 151 152 152 152 152 151
325 323 322 320 319 318 318 322 324 324 323 319 315 312 310 308 306 305 304 303 304 305 306 303 298 293 290 291 292 293 289 277 263 254 251 253 252 251 252 253 253 251 247 248 249 249 246 244 240 236 230 231 241 247 245 221 137 92 72 68 73 86 181 248 233 205 177 163 158 155 155 153 150 146 143 142 144 146 148 148 150 150 148 146 144 143
326 327 328 327 327 327 328 329 329 328 327 324 321 319 317 314 312 310 309 308 308 308 308 308 306 304 302 303 304 304 303 301 294 280 263 258 256 255 254 255 254 251 246 245 247 250 254 255 250 242 233 232 233 232 214 159 107 85 70 61 56 44 279 272 255 212 166 152 148 146 146 143 140 137 136 137 140 144 147 147 147 146 145 142 140 138
332 333 334 333 332 331 330 330 331 331 330 329 327 325 323 319 317 314 315 314 313 313 312 312 311 310 309 309 310 311 311 310 308 304 296 280 266 258 256 258 257 253 247 246 247 250 254 259 259 252 241 230 219 193 136 108 91 79 66 61 57 29 257 261 241 187 151 141 138 137 138 136 135 134 135 135 135 138 142 146 147 146 143 141 139 138
337 337 336 335 333 331 331 332 333 334 334 334 332 330 328 324 323 322 322 322 320 318 317 316 313 309 306 308 311 312 313 313 311 309 307 304 300 294 287 284 278 270 258 253 252 253 257 266 270 266 249 210 135 92 77 74 71 67 59 51 40 242 236 238 200 149 137 134 135 136 136 132 131 131 131 127 123 121 127 136 141 142 140 139 138 138
337 338 338 336 334 333 332 334 336 337 337 336 334 332 331 330 332 332 330 328 325 323 324 323 321 317 312 313 314 314 315 314 312 312 313 316 318 319 317 315 307 296 281 271 264 261 260 276 294 307 323 52 82 80 70 66 63 59 47 27 355 235 189 137 80 88 101 121 133 138 138 136 135 134 131 126 121 119 120 129 134 135 134 137 138 138
338 339 339 338 336 336 335 336 338 339 339 338 336 334 333 333 335 336 332 329 327 327 328 328 327 326 324 324 323 323 323 320 319 319 322 324 326 327 328 327 324 317 306 295 284 273 262 285 339 10 27 39 57 70 71 70 68 62 45 17 341 210 160 119 94 85 86 100 115 126 133 135 137 137 133 129 128 127 127 130 131 130 128 132 135 137
340 341 342 340 339 338 336 336 338 340 340 340 338 336 333 334 335 335 332 330 329 330 331 332 332 332 332 333 333 333 333 331 329 328 329 330 330 331 331 332 330 327 320 315 313 307 285 295 14 33 37 37 40 46 59 65 68 65 47 13 340 267 142 107 93 87 88 92 99 107 115 123 129 132 131 129 128 128 127 128 128 128 128 128 130 133
342 343 344 343 342 339 337 338 339 341 342 341 339 337 335 335 336 336 335 334 334 335 335 337 337 338 339 339 338 338 337 335 333 332 331 330 330 330 331 332 332 330 325 327 331 328 300 306 22 36 35 30 29 30 37 44 55 60 47 8 341 324 98 93 89 85 84 87 92 98 106 115 124 131 134 131 129 128 128 129 131 133 134 131 131 131